Temp
-5 -5 -5 -4 -4 -3 -4 -4 -4 -2 -3 -3 -1 1 2 3 4 4 5 5 6 7 7 8 8 7 7 8 8 8 8 8 8 8 8 8 7 7 7 7 7 7 7 7
-5 -5 -4 -4 -5 -5 -5 -4 -3 -1 -2 -3 -1 1 2 3 4 4 5 5 6 7 7 8 8 7 7 7 8 8 8 8 8 8 7 7 7 7 7 7 7 7 7 7
-5 -5 -5 -5 -5 -5 -5 -4 -3 -2 -1 -2 1 1 3 3 3 2 4 5 6 7 7 8 7 7 7 7 7 8 7 8 7 7 7 7 7 7 7 7 6 6 6 6
-5 -4 -4 -4 -4 -4 -4 -3 -2 -3 -2 0 1 1 2 3 3 2 3 4 5 7 7 7 7 6 7 7 7 7 7 7 7 7 7 7 7 6 6 6 6 6 6 6
-4 -4 -5 -4 -4 -4 -3 -2 -2 -2 0 1 2 3 3 3 2 2 2 3 5 6 6 6 7 6 6 7 7 7 7 7 7 7 7 7 6 6 6 6 6 6 6 6
-4 -4 -4 -4 -4 -3 -2 -3 -2 -2 1 0 3 3 4 3 4 3 3 5 6 6 6 6 6 6 6 7 7 7 7 7 7 6 6 6 6 6 6 5 6 6 5 5
-3 -4 -4 -4 -3 -3 -2 -2 -2 -2 -2 -2 4 3 4 5 5 5 5 5 5 6 6 6 6 7 7 7 6 6 6 6 6 6 6 6 6 6 5 5 5 5 5 5
-3 -3 -3 -3 -3 -2 -1 -1 -0 -1 -2 -1 2 3 5 4 4 5 5 6 6 6 6 6 6 6 6 6 6 6 6 6 6 6 6 6 5 5 5 5 5 5 5 5
-3 -2 -2 -2 -1 -1 -0 -0 0 0 1 0 2 4 4 4 4 4 5 5 5 6 6 6 6 6 6 6 6 6 6 6 6 6 6 5 5 5 5 4 4 4 4 4
-3 -2 -1 -1 -1 -1 -0 -1 -2 -0 -1 0 2 4 5 4 4 4 5 6 6 6 6 6 6 6 6 6 6 6 6 6 6 6 5 5 5 4 4 4 4 3 3 3
-3 -2 -1 -1 -1 -0 -0 -2 0 0 1 -1 0 3 5 5 5 4 5 6 6 6 6 6 6 6 6 6 6 6 6 5 5 5 4 4 4 4 4 4 3 3 3 3
-3 -2 -2 -1 -0 -0 0 -1 -1 -0 0 0 4 2 5 5 5 5 6 6 6 6 6 6 6 6 6 6 6 6 5 5 4 4 4 4 4 4 3 3 3 3 2 2
-2 -2 -2 -1 -0 -0 0 0 0 0 1 2 1 2 3 4 5 5 6 6 6 6 6 6 6 6 6 5 5 5 5 4 4 3 3 3 3 3 3 2 2 2 2 1
-2 -2 -2 -2 -2 -1 -0 0 1 1 1 2 2 2 2 3 5 6 6 6 6 6 6 6 6 6 5 5 5 4 4 3 3 3 3 3 3 3 2 2 1 1 0 -0
-2 -2 -2 -2 -1 -1 -1 -0 1 1 2 1 2 2 2 3 4 6 6 6 6 6 6 5 5 5 5 4 4 4 3 3 3 3 3 3 2 2 1 1 0 -0 -1 -1
-3 -3 -2 -1 -1 -1 -0 0 0 1 2 2 2 2 3 3 3 4 5 5 5 5 5 4 5 4 4 3 3 3 2 2 2 2 2 2 1 1 0 -0 -1 -1 -2 -2
-4 -3 -3 -1 -1 -1 -1 0 1 1 2 2 2 3 3 3 3 3 4 4 4 4 4 4 4 3 3 3 2 2 2 2 2 2 1 1 0 -0 -1 -1 -2 -2 -2 -2
-3 -3 -3 -2 -1 -3 1 1 2 1 2 3 3 2 3 3 3 4 4 4 4 4 4 4 4 3 3 2 2 2 1 1 1 1 1 0 -0 -1 -1 -2 -2 -3 -3 -3
-2 -3 -3 -2 -1 1 1 2 2 2 3 3 3 3 3 3 3 4 4 4 4 4 4 3 3 2 2 1 1 1 1 1 1 0 -0 -1 -1 -2 -2 -3 -3 -3 -4 -4
-2 -2 -2 -1 -1 -0 2 2 2 2 3 3 3 4 3 4 4 3 3 3 4 4 3 3 3 2 2 1 1 0 0 0 -0 -1 -1 -1 -2 -2 -3 -4 -4 -4 -4 -4
-2 -3 -2 -2 -2 -0 1 1 2 2 3 3 3 4 4 4 4 4 3 4 3 3 3 2 2 2 1 0 -0 -0 -0 -1 -1 -1 -2 -2 -3 -4 -4 -4 -5 -4 -4 -5
-2 -2 -2 -2 -1 -2 1 1 2 2 2 2 2 3 4 4 4 4 3 3 3 2 2 2 1 0 -0 -0 -1 -1 -1 -1 -1 -2 -3 -3 -4 -4 -5 -4 -5 -5 -5 -5
-1 -1 -1 -1 -0 0 1 1 1 1 2 2 2 2 3 3 3 3 3 2 2 1 1 1 0 -0 -0 -1 -1 -1 -1 -2 -2 -3 -4 -4 -5 -5 -5 -5 -5 -5 -5 -5
-0 -0 -0 0 1 1 1 1 1 1 1 1 2 2 2 2 2 2 2 2 2 1 1 0 -0 -1 -1 -1 -1 -1 -2 -3 -4 -4 -4 -5 -5 -5 -6 -6 -6 -6 -6 -6
-0 -0 0 1 1 1 1 1 1 1 1 1 2 2 2 2 2 2 1 1 1 0 -0 -0 -1 -1 -1 -1 -2 -3 -3 -4 -4 -5 -5 -5 -6 -6 -5 -6 -6 -6 -7 -8
2 2 1 1 1 1 1 1 2 2 2 2 2 2 1 1 1 1 1 0 0 -0 -1 -1 -1 -2 -2 -3 -3 -4 -4 -5 -5 -5 -6 -6 -5 -5 -5 -5 -6 -7 -7 -8
Height
3039 3040 3039 3043 3045 3047 3049 3050 3048 3048 3054 3060 3060 3069 3071 3072 3076 3079 3084 3089 3093 3100 3105 3111 3115 3120 3126 3131 3135 3138 3140 3141 3143 3145 3145 3146 3146 3145 3144 3143 3143 3142 3141 3141
3042 3038 3040 3042 3043 3043 3044 3044 3039 3041 3048 3052 3058 3062 3068 3068 3071 3074 3079 3084 3089 3095 3100 3106 3113 3118 3123 3128 3132 3135 3137 3138 3140 3143 3141 3143 3142 3142 3141 3140 3140 3139 3138 3138
3037 3037 3036 3037 3037 3037 3036 3035 3036 3039 3043 3046 3055 3060 3063 3063 3067 3071 3076 3082 3085 3090 3098 3104 3109 3114 3120 3125 3129 3131 3134 3135 3137 3138 3138 3139 3138 3138 3138 3137 3137 3136 3135 3135
3035 3032 3032 3032 3031 3033 3032 3029 3028 3034 3043 3043 3050 3053 3055 3058 3062 3068 3071 3074 3079 3087 3093 3100 3106 3112 3118 3122 3126 3128 3130 3132 3134 3135 3135 3135 3134 3134 3134 3133 3133 3132 3132 3131
3035 3030 3029 3028 3028 3030 3029 3029 3029 3033 3040 3043 3045 3051 3051 3054 3057 3062 3067 3071 3077 3084 3092 3098 3104 3110 3114 3119 3122 3125 3127 3129 3130 3131 3132 3132 3130 3130 3130 3129 3129 3129 3128 3127
3033 3029 3027 3026 3026 3027 3028 3030 3031 3035 3038 3041 3040 3046 3044 3046 3049 3057 3063 3069 3076 3082 3089 3095 3101 3106 3111 3115 3118 3122 3124 3125 3127 3127 3128 3127 3125 3126 3126 3125 3125 3125 3124 3123
3033 3029 3026 3025 3027 3029 3030 3031 3029 3036 3038 3038 3039 3045 3039 3039 3047 3054 3060 3067 3073 3080 3086 3092 3097 3103 3107 3112 3115 3118 3120 3121 3123 3123 3123 3122 3121 3122 3122 3121 3121 3120 3119 3118
3035 3032 3030 3030 3030 3032 3031 3033 3031 3034 3035 3035 3037 3038 3036 3038 3045 3052 3060 3067 3072 3077 3083 3089 3095 3100 3104 3108 3111 3114 3116 3117 3118 3118 3118 3117 3117 3118 3118 3117 3116 3115 3114 3112
3037 3035 3033 3033 3033 3034 3034 3033 3034 3033 3033 3035 3034 3036 3036 3038 3042 3048 3055 3061 3068 3075 3081 3086 3091 3096 3101 3105 3108 3110 3112 3113 3114 3113 3114 3114 3113 3114 3113 3113 3112 3110 3109 3107
3041 3039 3036 3035 3035 3036 3036 3036 3039 3036 3035 3034 3030 3033 3034 3037 3041 3045 3051 3058 3066 3071 3077 3082 3087 3092 3097 3100 3104 3106 3107 3108 3108 3110 3110 3110 3110 3110 3109 3108 3107 3106 3104 3102
3042 3041 3039 3037 3037 3037 3039 3039 3038 3035 3033 3034 3031 3032 3033 3034 3038 3045 3051 3057 3063 3069 3074 3079 3084 3089 3093 3096 3099 3101 3103 3104 3104 3106 3106 3105 3106 3105 3104 3103 3102 3100 3098 3096
3042 3041 3039 3037 3037 3037 3037 3038 3038 3037 3039 3036 3028 3031 3033 3034 3039 3045 3050 3055 3060 3066 3071 3077 3081 3085 3089 3092 3094 3097 3098 3099 3101 3101 3101 3101 3101 3100 3099 3098 3097 3095 3093 3092
3043 3041 3039 3036 3038 3036 3037 3038 3040 3040 3038 3032 3027 3032 3032 3035 3038 3043 3048 3053 3058 3063 3068 3073 3077 3081 3085 3088 3091 3093 3094 3096 3097 3097 3097 3097 3096 3094 3094 3093 3091 3089 3088 3087
3042 3041 3040 3040 3037 3037 3037 3037 3038 3038 3036 3034 3032 3033 3033 3035 3037 3042 3046 3052 3056 3061 3066 3069 3073 3077 3081 3085 3087 3089 3091 3092 3092 3092 3092 3092 3091 3090 3089 3087 3086 3085 3083 3082
3042 3040 3039 3037 3036 3036 3035 3036 3037 3038 3038 3037 3036 3036 3036 3035 3037 3041 3045 3049 3054 3059 3063 3066 3070 3075 3078 3080 3083 3086 3086 3087 3088 3088 3087 3087 3086 3084 3083 3082 3081 3080 3078 3077
3040 3038 3037 3034 3034 3034 3033 3034 3036 3037 3037 3038 3039 3039 3038 3037 3037 3040 3044 3048 3053 3057 3061 3065 3069 3072 3075 3078 3080 3081 3082 3083 3083 3083 3082 3081 3080 3079 3078 3077 3076 3075 3074 3072
3040 3039 3038 3035 3033 3032 3031 3028 3031 3035 3038 3038 3039 3040 3040 3040 3041 3042 3045 3049 3053 3056 3059 3063 3066 3070 3072 3075 3076 3077 3078 3078 3078 3078 3077 3076 3075 3074 3073 3073 3071 3070 3068 3065
3039 3039 3039 3035 3034 3034 3026 3025 3028 3032 3036 3037 3038 3038 3040 3042 3042 3044 3046 3049 3052 3055 3057 3061 3064 3066 3069 3071 3072 3073 3073 3074 3073 3073 3072 3071 3070 3069 3069 3067 3066 3063 3061 3058
3036 3038 3038 3037 3033 3029 3025 3025 3027 3030 3034 3035 3035 3036 3038 3041 3042 3044 3046 3049 3051 3053 3056 3058 3060 3063 3066 3067 3068 3069 3069 3069 3069 3067 3067 3066 3065 3064 3062 3061 3059 3056 3053 3050
3034 3036 3038 3036 3034 3029 3025 3024 3025 3028 3031 3032 3033 3034 3036 3038 3039 3042 3043 3045 3048 3051 3053 3055 3058 3060 3061 3062 3064 3064 3064 3064 3063 3062 3062 3061 3059 3058 3056 3054 3051 3048 3044 3040
3031 3032 3033 3035 3035 3028 3026 3025 3025 3028 3033 3029 3031 3033 3033 3034 3037 3038 3040 3042 3045 3048 3050 3052 3054 3056 3057 3058 3059 3059 3059 3059 3058 3057 3055 3054 3053 3051 3049 3047 3043 3040 3036 3030
3030 3031 3030 3032 3032 3029 3025 3025 3027 3028 3028 3029 3030 3030 3031 3031 3033 3034 3036 3039 3041 3044 3046 3048 3050 3052 3052 3053 3054 3054 3054 3053 3053 3051 3050 3048 3047 3045 3042 3039 3036 3031 3025 3019
3029 3029 3029 3029 3026 3025 3025 3025 3026 3027 3028 3029 3030 3030 3030 3030 3030 3031 3034 3036 3038 3040 3042 3044 3046 3047 3048 3049 3049 3050 3049 3048 3047 3045 3044 3042 3040 3038 3034 3030 3026 3020 3014 3008
3027 3027 3026 3026 3024 3024 3024 3025 3026 3027 3028 3028 3029 3029 3029 3030 3030 3031 3032 3033 3035 3037 3039 3041 3042 3044 3045 3045 3045 3044 3043 3043 3042 3040 3038 3036 3034 3030 3026 3021 3015 3009 3003 2997
3026 3024 3023 3023 3023 3023 3024 3024 3025 3025 3026 3026 3026 3027 3028 3029 3029 3030 3031 3032 3034 3035 3037 3039 3040 3040 3040 3040 3040 3040 3039 3038 3036 3034 3032 3029 3025 3021 3016 3011 3005 3000 2995 2987
3020 3020 3020 3019 3020 3022 3023 3023 3024 3024 3025 3025 3025 3026 3026 3027 3028 3029 3030 3031 3033 3034 3035 3035 3036 3036 3036 3036 3036 3035 3034 3033 3031 3028 3024 3020 3016 3012 3006 3001 2996 2992 2984 2978
Wind_Speed
16 22 28 29 30 28 24 23 30 38 30 34 41 36 23 31 36 37 33 35 35 34 34 32 33 32 29 24 21 20 16 13 13 13 11 12 13 14 14 14 14 14 14 16
14 25 22 21 18 22 24 27 38 38 29 38 38 37 28 20 30 34 35 35 35 34 35 33 32 31 28 24 22 18 17 13 12 15 12 14 13 14 14 14 15 15 15 17
22 16 17 27 24 23 25 30 32 36 26 30 38 34 29 24 26 28 30 31 34 36 33 32 33 32 28 24 22 18 16 13 13 14 14 15 13 15 15 15 15 15 16 19
19 26 24 16 23 19 25 24 26 20 24 20 33 12 30 25 27 27 29 33 35 33 33 33 33 30 26 24 21 19 14 14 13 14 15 16 15 15 15 16 16 16 18 21
9 14 14 17 25 19 17 5 18 22 24 20 32 20 29 27 30 34 33 31 31 31 30 32 31 27 26 23 21 17 15 13 14 15 16 17 15 16 16 17 17 18 20 22
12 10 7 10 11 11 5 2 9 19 21 13 22 26 28 36 36 37 35 32 31 31 31 31 29 28 26 23 20 16 15 14 15 16 17 17 16 16 17 17 18 20 20 21
9 9 5 4 10 4 6 5 3 5 6 4 21 30 11 34 33 34 34 33 30 30 30 29 29 27 25 21 18 16 15 15 16 17 18 18 16 18 18 18 20 22 22 22
8 4 7 7 0 4 7 9 3 2 4 3 15 12 6 31 27 28 29 28 29 29 28 27 26 25 23 20 18 17 16 17 18 18 19 17 16 17 20 20 22 22 23 23
9 4 3 6 2 1 3 4 5 8 3 5 9 9 19 27 34 30 31 30 30 27 27 27 27 25 22 19 18 18 18 19 19 18 19 16 17 19 21 22 23 23 23 23
5 6 1 2 3 4 3 4 5 5 4 5 7 11 4 26 29 35 34 32 30 28 27 28 26 23 20 19 19 19 20 20 18 18 17 17 19 21 23 23 23 23 23 23
7 5 3 2 2 2 2 4 6 7 6 1 4 9 14 11 27 36 33 27 26 27 26 26 24 21 21 20 21 21 20 18 16 18 18 18 20 22 22 23 23 24 24 24
8 5 6 5 3 2 4 7 5 4 5 12 8 6 17 14 20 27 29 29 29 27 25 23 22 22 22 22 22 21 18 16 19 18 18 19 21 22 23 24 24 24 24 24
5 3 5 3 6 4 3 6 9 11 11 7 4 2 9 15 21 23 27 27 26 25 24 23 24 24 24 22 20 17 16 19 18 18 19 20 22 23 23 23 23 23 22 21
5 4 8 5 7 5 3 5 8 9 7 19 19 14 7 12 18 25 24 24 23 22 22 23 23 23 21 19 16 17 19 18 17 18 20 21 22 22 22 22 21 20 20 20
10 7 9 7 7 9 9 2 5 9 11 6 7 11 11 1 16 18 21 24 22 22 22 21 21 19 17 16 17 19 17 17 17 19 20 21 21 21 20 19 19 20 20 21
10 6 10 7 9 12 13 13 8 7 11 11 11 9 10 10 8 15 15 20 22 20 19 18 17 16 17 18 18 17 16 17 18 20 21 21 20 19 19 20 20 21 22 24
9 7 8 3 10 7 11 20 22 12 5 8 9 5 3 5 6 6 10 13 14 15 15 16 15 16 17 17 17 15 16 18 20 21 21 20 19 20 20 21 22 24 25 28
11 7 7 8 9 2 7 6 21 16 7 8 11 11 8 3 1 5 8 10 11 13 15 16 16 17 16 15 15 17 19 20 21 21 20 20 20 21 22 23 25 27 29 32
13 11 5 4 7 14 18 9 13 16 11 12 13 14 13 10 7 8 8 9 12 13 13 14 16 15 14 16 18 19 20 21 21 20 20 21 22 23 24 25 27 30 33 36
16 13 10 3 4 3 4 2 9 12 9 10 12 12 15 14 15 13 13 14 15 13 13 14 14 15 17 18 19 20 20 22 20 20 21 22 23 24 26 28 31 34 37 40
7 15 17 15 6 8 10 7 2 8 5 7 9 11 13 15 13 16 18 17 17 15 16 16 17 18 18 19 20 21 22 20 20 22 22 23 24 25 28 30 34 38 40 42
3 6 7 10 6 7 5 4 4 4 4 3 3 5 7 10 12 15 17 16 16 16 17 19 18 17 19 20 21 21 19 21 21 22 23 23 25 28 31 35 37 39 41 44
4 10 4 8 5 7 8 4 7 4 5 4 2 2 2 1 5 9 13 14 15 17 17 17 18 18 19 20 19 18 20 21 22 22 23 25 28 31 34 37 39 41 44 47
7 7 11 7 4 8 4 2 2 3 4 3 3 3 3 2 2 3 5 7 10 12 13 13 15 15 16 17 19 20 21 21 21 23 26 28 30 32 35 38 42 45 46 49
18 17 11 8 7 4 4 6 6 7 8 10 8 6 5 4 4 4 5 6 7 8 9 9 11 14 17 19 19 20 19 20 22 24 27 29 31 34 38 41 43 45 46 48
5 4 7 9 8 7 6 4 5 5 7 7 7 7 8 7 7 7 7 7 8 10 11 14 15 17 17 18 18 19 20 21 23 25 28 32 35 38 40 43 45 44 46 47
Wind_Direction
199 211 218 229 238 245 241 246 249 250 252 242 211 223 219 214 215 218 215 213 211 210 214 213 213 210 209 210 214 219 222 227 241 255 264 278 281 286 292 301 307 304 306 306
226 234 242 246 244 245 252 258 259 263 251 215 217 216 214 230 215 212 212 211 211 210 214 215 212 208 207 209 215 218 226 229 244 257 270 277 283 284 292 300 303 301 303 302
237 242 237 230 245 245 250 257 263 250 225 216 204 215 218 225 200 201 210 211 210 212 214 215 209 206 205 209 216 220 227 235 248 264 274 279 284 286 293 299 296 297 299 299
253 259 261 254 237 254 263 261 247 215 187 188 192 210 211 210 190 192 201 207 208 206 208 208 205 205 205 212 216 224 229 238 252 266 276 279 281 287 291 293 292 295 296 299
297 293 271 244 247 256 249 323 219 207 201 201 194 218 205 208 189 192 193 202 204 201 201 201 203 203 209 213 220 226 233 243 254 267 275 278 283 287 290 288 290 292 298 299
318 308 279 251 239 197 79 205 231 191 206 204 201 209 203 202 205 196 196 199 200 196 197 200 203 207 211 216 223 229 237 245 257 269 274 280 283 286 284 285 292 294 298 297
329 5 340 206 173 176 177 231 202 182 200 204 200 211 249 209 203 207 201 198 199 201 202 204 207 211 214 219 228 233 239 248 260 269 277 278 282 281 282 289 291 292 294 292
340 336 21 61 274 298 204 228 307 200 168 184 207 210 226 187 190 202 203 200 201 202 204 206 208 213 217 224 230 238 242 253 261 272 274 273 275 282 285 289 290 292 293 295
338 13 69 353 224 105 234 252 228 324 250 144 195 185 172 173 186 188 195 199 201 203 206 209 210 214 222 227 233 236 250 258 266 270 269 274 278 281 284 287 290 292 293 297
336 318 277 56 247 257 316 242 267 287 181 209 187 182 200 190 183 183 193 200 202 208 211 210 212 216 221 223 232 245 253 262 265 266 267 271 277 281 284 288 291 292 296 303
343 288 291 248 170 234 276 256 268 324 307 295 146 198 216 204 190 191 195 203 205 207 209 209 213 218 217 227 241 250 256 259 263 262 266 275 280 282 286 290 292 294 300 305
329 315 300 247 246 256 267 209 302 317 330 282 262 148 189 183 179 187 192 198 202 207 210 212 215 217 227 237 244 248 252 256 255 261 271 276 281 285 290 291 294 299 303 303
331 332 304 265 263 268 247 244 211 281 296 294 338 44 181 183 184 185 192 194 197 203 208 212 218 225 232 235 239 243 248 249 257 265 273 280 286 290 291 293 296 300 300 299
296 312 300 286 275 308 228 234 216 289 319 340 37 40 30 185 187 195 191 194 197 200 205 210 214 219 225 230 236 241 244 253 261 271 280 286 288 290 291 294 297 294 293 292
296 285 309 284 276 290 262 248 203 253 274 331 358 3 345 212 197 194 199 201 199 201 202 206 213 218 224 229 235 241 249 258 270 280 287 289 288 289 293 292 289 288 290 294
309 264 330 316 284 248 270 254 255 245 239 281 305 348 9 55 167 199 193 198 201 203 207 212 216 219 226 232 238 244 255 269 280 287 287 287 290 292 288 287 287 289 292 295
278 304 329 304 334 278 269 249 237 263 280 273 282 309 323 33 79 119 185 196 199 201 207 215 217 221 226 233 241 254 266 277 283 286 288 290 289 286 286 286 288 291 295 298
261 276 276 293 318 266 273 294 222 247 253 257 246 255 268 288 196 164 160 173 188 194 204 211 216 224 230 240 252 263 272 280 287 291 290 288 287 287 287 289 291 293 297 300
233 239 275 255 294 285 295 267 212 223 239 255 244 251 255 246 229 226 214 200 206 208 213 217 224 231 240 251 260 269 278 287 292 291 288 288 289 288 289 290 294 297 299 303
228 227 222 253 269 280 345 301 218 213 240 242 250 251 255 253 241 233 232 227 231 232 236 241 245 246 249 257 267 275 283 291 290 289 290 289 287 289 292 294 296 300 305 306
224 220 230 242 273 279 282 282 218 173 215 240 241 246 250 252 244 240 236 237 241 240 244 246 243 248 256 261 269 278 287 289 288 289 288 289 290 291 294 299 304 305 305 307
241 201 221 214 230 265 325 240 190 196 192 212 225 249 256 250 236 234 235 237 238 238 241 244 247 250 256 265 274 283 285 287 290 291 290 290 293 297 301 303 305 306 307 309
242 216 225 223 247 283 314 248 200 188 200 210 226 262 294 281 221 224 228 232 233 233 238 243 246 252 260 268 276 285 288 289 288 288 291 296 300 301 303 306 307 309 311 311
292 275 246 272 274 257 238 187 190 237 218 253 277 277 275 253 216 195 203 216 224 229 233 238 244 255 265 276 283 285 287 288 291 296 297 298 301 304 306 309 311 312 313 312
287 282 276 285 263 232 231 244 255 269 272 285 287 278 270 261 246 236 232 232 229 229 235 246 259 269 275 280 284 286 289 292 293 296 301 304 306 309 310 311 311 311 313 315
349 334 287 273 250 254 249 236 246 255 260 269 271 270 269 269 264 260 256 249 244 247 256 263 271 275 279 283 286 287 291 296 300 303 307 310 311 310 309 309 310 312 312 313